Oxford, CT

5:26 AM EDT on April 24, 2018 (GMT -0400)
Waterbury-Oxford

Weather History for KOXC - March, 2013

Change the Weather History Date:

Tuesday, March 12, 2013

  Actual Average Record
Temperature  
Mean Temperature 47 °F -  
Max Temperature 53 °F 39 °F 69 °F (2012)
Min Temperature 39 °F 24 °F 8 °F (2017)
Degree Days  
Heating Degree Days 18    
Moisture  
Dew Point 44 °F    
Average Humidity 87    
Maximum Humidity 94    
Minimum Humidity 76    
Precipitation  
Precipitation 0.00 in - - ()
Sea Level Pressure  
Sea Level Pressure 29.93 in    
Wind  
Wind Speed 11 mph (SSW)    
Max Wind Speed 18 mph    
Max Gust Speed 26 mph    
Visibility 6 miles    
Events Fog , Rain    
Averages and records for this station are not official NWS values.
T = Trace of Precipitation, MM = Missing Value Source: NWS Daily Summary

Daily Weather History Graph

Daily Weather History Graph

Search for Another Location

Airport or City:

Astronomy

Mar. 12, 2013 Rise Set
Actual Time 7:08 AM EDT 6:56 PM EDT
Civil Twilight 6:41 AM EDT 7:23 PM EDT
Nautical Twilight 6:09 AM EDT 7:55 PM EDT
Astronomical Twilight 5:36 AM EDT 8:28 PM EDT
Moon 7:12 AM EDT (3/12) 8:09 PM EDT (3/12)
Length of Visible Light 12h 42m
Length of Day
11h 47m
New Moon, 1% of the Moon is Illuminated
Mar 12
New Moon
Mar 19
First Quarter
Mar 27
Full
Apr 3
Last Quarter
Apr 10
New

Hourly Weather History & Observations

Time (EDT) Temp. Windchill Dew Point Humidity Pressure Visibility Wind Dir Wind Speed Gust Speed Precip Events Conditions
12:15 AM 46.4 °F 41.5 °F 42.8 °F 87% 30.12 in 3.0 mi South 10.4 mph - N/A   Overcast
12:35 AM 46.4 °F 41.9 °F 42.8 °F 87% 30.11 in 2.0 mi South 9.2 mph - N/A   Overcast
12:55 AM 46.4 °F 43.5 °F 42.8 °F 87% 30.11 in 1.5 mi South 5.8 mph - N/A   Overcast
1:15 AM 46.4 °F 42.4 °F 42.8 °F 87% 30.09 in 0.8 mi South 8.1 mph - N/A   Overcast
1:35 AM 46.4 °F 41.5 °F 42.8 °F 87% 30.08 in 0.8 mi South 10.4 mph - N/A   Overcast
1:55 AM 46.4 °F 41.1 °F 42.8 °F 87% 30.07 in 0.8 mi South 11.5 mph - N/A   Overcast
2:15 AM 46.4 °F 41.5 °F 42.8 °F 87% 30.04 in 2.0 mi South 10.4 mph 17.3 mph N/A   Overcast
2:35 AM 46.4 °F 41.1 °F 42.8 °F 87% 30.04 in 7.0 mi South 11.5 mph 19.6 mph N/A   Overcast
2:55 AM 46.4 °F 41.1 °F 44.6 °F 93% 30.04 in 8.0 mi South 11.5 mph - N/A   Overcast
3:15 AM 46.4 °F 41.5 °F 44.6 °F 93% 30.03 in 10.0 mi South 10.4 mph - N/A   Overcast
3:35 AM 46.4 °F 41.9 °F 44.6 °F 93% 30.03 in 10.0 mi South 9.2 mph - N/A   Overcast
3:55 AM 48.2 °F - 44.6 °F 87% 30.03 in 10.0 mi South 6.9 mph - N/A   Overcast
4:15 AM 48.2 °F - 44.6 °F 87% 30.03 in 10.0 mi South 8.1 mph - N/A   Overcast
4:35 AM 48.2 °F - 44.6 °F 87% 30.04 in 10.0 mi South 9.2 mph - N/A   Overcast
4:55 AM 48.2 °F - 44.6 °F 87% 30.02 in 10.0 mi South 10.4 mph 16.1 mph N/A   Mostly Cloudy
5:15 AM 48.2 °F - 44.6 °F 87% 30.01 in 10.0 mi South 12.7 mph 17.3 mph N/A   Mostly Cloudy
5:35 AM 48.2 °F - 44.6 °F 87% 30.01 in 10.0 mi South 11.5 mph - N/A   Overcast
5:45 AM 48.2 °F - 44.6 °F 87% 30.01 in 10.0 mi South 12.7 mph - N/A   Overcast
6:45 AM 48.2 °F - 44.6 °F 87% 29.99 in 10.0 mi South 11.5 mph - N/A   Unknown
7:45 AM 48.2 °F - 44.6 °F 87% 29.99 in 6.0 mi South 11.5 mph - N/A Rain Light Rain
8:55 AM 48.2 °F - 46.4 °F 93% 29.98 in 5.0 mi South 11.5 mph 20.7 mph N/A Rain Light Rain
9:55 AM 50.0 °F - 46.4 °F 87% 29.97 in 4.0 mi South 11.5 mph 18.4 mph N/A Rain Light Rain
10:45 AM 50.0 °F - 46.4 °F 87% 29.95 in 4.0 mi South 13.8 mph 23.0 mph N/A Rain Light Rain
11:45 AM 51.8 °F - 48.2 °F 88% 29.92 in 4.0 mi South 12.7 mph 20.7 mph N/A Rain Light Rain
12:45 PM 51.8 °F - 48.2 °F 88% 29.90 in 4.0 mi South 15.0 mph 20.7 mph N/A Rain Light Rain
12:53 PM 51.8 °F - 48.2 °F 88% 29.90 in 2.5 mi South 15.0 mph 20.7 mph N/A Rain Rain
1:45 PM 51.8 °F - 48.2 °F 88% 29.86 in 3.0 mi South 13.8 mph 20.7 mph N/A Rain Light Rain
2:45 PM 51.8 °F - 48.2 °F 88% 29.82 in 3.0 mi South 17.3 mph 23.0 mph N/A Rain Light Rain
3:45 PM 51.8 °F - 48.2 °F 88% 29.77 in 2.0 mi South 18.4 mph 26.5 mph N/A Rain Light Rain
4:45 PM 53.6 °F - 50.0 °F 88% 29.72 in 2.0 mi South 17.3 mph 25.3 mph N/A Rain Rain
6:45 PM 53.6 °F - 50.0 °F 88% 29.71 in 1.5 mi SW 9.2 mph 24.2 mph N/A   Overcast
7:45 PM 51.8 °F - 48.2 °F 88% 29.74 in 0.2 mi SW 10.4 mph 16.1 mph N/A Fog Fog
8:45 PM 51.8 °F - 50.0 °F 94% 29.76 in 0.5 mi West 4.6 mph - N/A Fog Fog
9:15 PM 51.8 °F - 48.2 °F 88% 29.77 in 10.0 mi NW 10.4 mph 20.7 mph N/A   Overcast
9:35 PM 50.0 °F - 46.4 °F 87% 29.78 in 10.0 mi NW 6.9 mph 17.3 mph N/A   Overcast
9:55 PM 46.4 °F 42.9 °F 42.8 °F 87% 29.80 in 10.0 mi NNW 6.9 mph 17.3 mph N/A   Overcast
10:15 PM 44.6 °F 39.7 °F 39.2 °F 81% 29.81 in 10.0 mi NNW 9.2 mph - N/A   Overcast
10:35 PM 44.6 °F 39.7 °F 39.2 °F 81% 29.80 in 10.0 mi NNW 9.2 mph - N/A   Overcast
10:55 PM 44.6 °F 38.1 °F 37.4 °F 76% 29.81 in 10.0 mi North 13.8 mph - N/A   Overcast
11:15 PM 42.8 °F 35.8 °F 35.6 °F 76% 29.81 in 10.0 mi NNW 13.8 mph 20.7 mph N/A   Overcast
11:35 PM 41.0 °F 34.3 °F 33.8 °F 76% 29.81 in 10.0 mi NNW 11.5 mph 18.4 mph N/A   Mostly Cloudy
11:55 PM 39.2 °F 31.2 °F 33.8 °F 81% 29.81 in 10.0 mi North 13.8 mph - N/A   Clear